Time,TemperatureF,DewpointF,PressureIn,WindDirection,WindDirectionDegrees,WindSpeedMPH,WindSpeedGustMPH,Humidity,HourlyPrecipIn,Conditions,Clouds,dailyrainin,SolarRadiationWatts/m^2,SoftwareType,DateUTC
2015-05-22 00:05:00,66.0,54.7,29.93,East,86,0.0,0.0,67,0.00,,,0.00,0,wxd,2015-05-22 04:05:00,
2015-05-22 00:10:00,65.8,54.5,29.93,East,86,0.0,0.0,67,0.00,,,0.00,0,wxd,2015-05-22 04:10:00,
2015-05-22 00:15:00,65.6,54.3,29.93,East,86,0.0,1.0,67,0.00,,,0.00,0,wxd,2015-05-22 04:15:00,
2015-05-22 00:25:00,65.6,53.1,29.93,East,86,0.0,1.0,64,0.00,,,0.00,0,wxd,2015-05-22 04:25:00,
2015-05-22 00:30:00,65.6,51.8,29.93,East,85,0.0,2.0,61,0.00,,,0.00,0,wxd,2015-05-22 04:30:00,
2015-05-22 00:35:00,65.8,51.5,29.94,East,91,0.0,1.0,60,0.00,,,0.00,0,wxd,2015-05-22 04:35:00,
2015-05-22 00:40:00,65.6,50.4,29.94,ESE,119,0.0,1.0,58,0.00,,,0.00,0,wxd,2015-05-22 04:40:00,
2015-05-22 00:45:00,65.5,50.8,29.94,SE,124,0.0,1.0,59,0.00,,,0.00,0,wxd,2015-05-22 04:45:00,
2015-05-22 00:50:00,65.3,50.1,29.94,SE,129,0.0,1.0,58,0.00,,,0.00,0,wxd,2015-05-22 04:50:00,
2015-05-22 00:55:00,65.2,50.0,29.94,SE,129,0.0,0.0,58,0.00,,,0.00,0,wxd,2015-05-22 04:55:00,
2015-05-22 01:00:00,65.2,50.5,29.94,SE,129,0.0,0.0,59,0.00,,,0.00,0,wxd,2015-05-22 05:00:00,
2015-05-22 01:05:00,65.0,50.8,29.94,SE,129,0.0,0.0,60,0.00,,,0.00,0,wxd,2015-05-22 05:05:00,
2015-05-22 01:10:00,64.8,50.6,29.94,SE,129,0.0,0.0,60,0.00,,,0.00,0,wxd,2015-05-22 05:10:00,
2015-05-22 01:15:00,64.5,50.3,29.94,SE,129,0.0,0.0,60,0.00,,,0.00,0,wxd,2015-05-22 05:15:00,
2015-05-22 01:20:00,64.3,50.1,29.95,SE,137,0.0,1.0,60,0.00,,,0.00,0,wxd,2015-05-22 05:20:00,
2015-05-22 01:25:00,64.2,50.0,29.95,SSE,149,0.0,1.0,60,0.00,,,0.00,0,wxd,2015-05-22 05:25:00,
2015-05-22 01:30:00,64.0,49.8,29.95,SE,146,0.0,1.0,60,0.00,,,0.00,0,wxd,2015-05-22 05:30:00,
2015-05-22 01:35:00,63.9,50.2,29.94,SE,146,0.0,0.0,61,0.00,,,0.00,0,wxd,2015-05-22 05:35:00,
2015-05-22 01:40:00,63.9,50.2,29.94,SE,146,0.0,0.0,61,0.00,,,0.00,0,wxd,2015-05-22 05:40:00,
2015-05-22 01:45:00,63.7,49.5,29.94,SE,146,0.0,1.0,60,0.00,,,0.00,0,wxd,2015-05-22 05:45:00,
2015-05-22 01:50:00,63.5,49.4,29.94,SE,146,0.0,0.0,60,0.00,,,0.00,0,wxd,2015-05-22 05:50:00,
2015-05-22 01:55:00,63.4,49.3,29.94,SE,146,0.0,0.0,60,0.00,,,0.00,0,wxd,2015-05-22 05:55:00,
2015-05-22 02:00:00,63.2,48.6,29.94,SE,146,0.0,0.0,59,0.00,,,0.00,0,wxd,2015-05-22 06:00:00,
2015-05-22 02:05:00,63.1,48.5,29.94,South,191,0.0,1.0,59,0.00,,,0.00,0,wxd,2015-05-22 06:05:00,
2015-05-22 02:10:00,62.9,48.3,29.94,SSW,211,0.0,1.0,59,0.00,,,0.00,0,wxd,2015-05-22 06:10:00,
2015-05-22 02:15:00,62.7,48.6,29.94,SSW,211,0.0,0.0,60,0.00,,,0.00,0,wxd,2015-05-22 06:15:00,
2015-05-22 02:20:00,62.6,48.1,29.94,SSW,211,0.0,1.0,59,0.00,,,0.00,0,wxd,2015-05-22 06:20:00,
2015-05-22 02:25:00,62.4,48.8,29.94,SSW,211,0.0,0.0,61,0.00,,,0.00,0,wxd,2015-05-22 06:25:00,
2015-05-22 02:30:00,62.1,48.5,29.94,SSW,211,0.0,1.0,61,0.00,,,0.00,0,wxd,2015-05-22 06:30:00,
2015-05-22 02:35:00,62.0,48.0,29.94,SSW,211,0.0,0.0,60,0.00,,,0.00,0,wxd,2015-05-22 06:35:00,
2015-05-22 02:40:00,61.8,47.3,29.94,SSW,210,0.0,0.0,59,0.00,,,0.00,0,wxd,2015-05-22 06:40:00,
2015-05-22 02:45:00,61.8,47.8,29.94,NNE,12,0.0,2.0,60,0.00,,,0.00,0,wxd,2015-05-22 06:45:00,
2015-05-22 02:50:00,61.6,47.1,29.94,WSW,247,0.0,2.0,59,0.00,,,0.00,0,wxd,2015-05-22 06:50:00,
2015-05-22 02:55:00,61.6,47.1,29.94,SW,222,0.0,1.0,59,0.00,,,0.00,0,wxd,2015-05-22 06:55:00,
2015-05-22 03:00:00,61.5,47.0,29.94,SW,222,0.0,0.0,59,0.00,,,0.00,0,wxd,2015-05-22 07:00:00,
2015-05-22 03:10:00,61.3,46.4,29.94,WSW,251,0.0,2.0,58,0.00,,,0.00,0,wxd,2015-05-22 07:10:00,
2015-05-22 03:15:00,61.2,47.2,29.94,NW,313,0.0,1.0,60,0.00,,,0.00,0,wxd,2015-05-22 07:15:00,
2015-05-22 03:20:00,61.0,47.0,29.95,NW,313,0.0,0.0,60,0.00,,,0.00,0,wxd,2015-05-22 07:20:00,
2015-05-22 03:30:00,60.7,46.7,29.95,NW,313,0.0,1.0,60,0.00,,,0.00,0,wxd,2015-05-22 07:30:00,
2015-05-22 03:35:00,60.7,46.7,29.95,NW,310,0.0,1.0,60,0.00,,,0.00,0,wxd,2015-05-22 07:35:00,
2015-05-22 03:45:00,60.4,46.9,29.95,West,278,0.0,1.0,61,0.00,,,0.00,0,wxd,2015-05-22 07:45:00,
2015-05-22 03:55:00,60.1,47.0,29.95,West,278,0.0,2.0,62,0.00,,,0.00,0,wxd,2015-05-22 07:55:00,
2015-05-22 04:05:00,59.6,47.0,29.96,West,278,0.0,0.0,63,0.00,,,0.00,0,wxd,2015-05-22 08:05:00,
2015-05-22 04:10:00,59.5,46.9,29.96,West,278,0.0,0.0,63,0.00,,,0.00,0,wxd,2015-05-22 08:10:00,
2015-05-22 04:15:00,59.3,46.7,29.96,West,278,0.0,0.0,63,0.00,,,0.00,0,wxd,2015-05-22 08:15:00,
2015-05-22 04:20:00,59.0,46.4,29.96,West,278,0.0,0.0,63,0.00,,,0.00,0,wxd,2015-05-22 08:20:00,
2015-05-22 04:25:00,58.9,46.7,29.96,West,278,0.0,0.0,64,0.00,,,0.00,0,wxd,2015-05-22 08:25:00,
2015-05-22 04:30:00,58.7,47.0,29.96,West,278,0.0,0.0,65,0.00,,,0.00,0,wxd,2015-05-22 08:30:00,
2015-05-22 04:35:00,58.4,46.7,29.97,West,278,0.0,0.0,65,0.00,,,0.00,0,wxd,2015-05-22 08:35:00,
2015-05-22 04:40:00,58.3,47.0,29.97,West,278,0.0,0.0,66,0.00,,,0.00,0,wxd,2015-05-22 08:40:00,
2015-05-22 04:45:00,58.3,47.0,29.97,West,278,0.0,0.0,66,0.00,,,0.00,0,wxd,2015-05-22 08:45:00,
2015-05-22 04:55:00,58.0,47.1,29.98,West,278,0.0,0.0,67,0.00,,,0.00,0,wxd,2015-05-22 08:55:00,
2015-05-22 05:00:00,57.8,46.9,29.98,West,278,0.0,0.0,67,0.00,,,0.00,0,wxd,2015-05-22 09:00:00,
2015-05-22 05:05:00,57.6,47.1,29.98,West,278,0.0,0.0,68,0.00,,,0.00,0,wxd,2015-05-22 09:05:00,
2015-05-22 05:10:00,57.5,47.0,29.98,West,278,0.0,0.0,68,0.00,,,0.00,0,wxd,2015-05-22 09:10:00,
2015-05-22 05:15:00,57.3,47.2,29.98,West,278,0.0,0.0,69,0.00,,,0.00,0,wxd,2015-05-22 09:15:00,
2015-05-22 05:20:00,57.2,47.1,29.99,NW,318,0.0,1.0,69,0.00,,,0.00,0,wxd,2015-05-22 09:20:00,
2015-05-22 05:25:00,57.0,46.9,29.99,NNW,331,0.0,0.0,69,0.00,,,0.00,0,wxd,2015-05-22 09:25:00,
2015-05-22 05:30:00,56.9,46.8,29.99,NNW,331,0.0,1.0,69,0.00,,,0.00,0,wxd,2015-05-22 09:30:00,
2015-05-22 05:40:00,56.7,47.0,30.00,NNW,331,0.0,0.0,70,0.00,,,0.00,0,wxd,2015-05-22 09:40:00,
2015-05-22 05:45:00,56.7,47.0,30.00,NNW,329,0.0,1.0,70,0.00,,,0.00,0,wxd,2015-05-22 09:45:00,
2015-05-22 05:50:00,56.7,47.0,30.00,NW,325,0.0,1.0,70,0.00,,,0.00,0,wxd,2015-05-22 09:50:00,
2015-05-22 05:55:00,56.7,47.0,30.00,NW,325,0.0,0.0,70,0.00,,,0.00,0,wxd,2015-05-22 09:55:00,
2015-05-22 06:00:00,56.7,47.4,30.00,NW,325,0.0,1.0,71,0.00,,,0.00,0,wxd,2015-05-22 10:00:00,
2015-05-22 06:05:00,56.6,47.3,30.01,NW,325,0.0,1.0,71,0.00,,,0.00,0,wxd,2015-05-22 10:05:00,
2015-05-22 06:15:00,56.6,47.3,30.01,NW,325,0.0,0.0,71,0.00,,,0.00,0,wxd,2015-05-22 10:15:00,
2015-05-22 06:20:00,56.6,46.9,30.03,NW,325,0.0,0.0,70,0.00,,,0.00,0,wxd,2015-05-22 10:20:00,
2015-05-22 06:25:00,56.6,46.9,30.03,NW,325,0.0,0.0,70,0.00,,,0.00,0,wxd,2015-05-22 10:25:00,
2015-05-22 06:30:00,56.6,46.9,30.03,NW,325,0.0,0.0,70,0.00,,,0.00,0,wxd,2015-05-22 10:30:00,
2015-05-22 06:35:00,56.6,46.9,30.04,NW,325,0.0,1.0,70,0.00,,,0.00,0,wxd,2015-05-22 10:35:00,
2015-05-22 06:45:00,56.5,47.2,30.04,NW,325,0.0,1.0,71,0.00,,,0.00,5,wxd,2015-05-22 10:45:00,
2015-05-22 06:50:00,56.5,47.2,30.05,NW,325,0.0,0.0,71,0.00,,,0.00,5,wxd,2015-05-22 10:50:00,
2015-05-22 06:55:00,56.5,47.6,30.05,NW,325,0.0,0.0,72,0.00,,,0.00,5,wxd,2015-05-22 10:55:00,
2015-05-22 07:00:00,56.5,47.6,30.05,NW,325,0.0,1.0,72,0.00,,,0.00,7,wxd,2015-05-22 11:00:00,
2015-05-22 07:05:00,56.5,47.6,30.06,NW,325,0.0,1.0,72,0.00,,,0.00,9,wxd,2015-05-22 11:05:00,
2015-05-22 07:10:00,56.6,47.7,30.06,NW,321,0.0,1.0,72,0.00,,,0.00,11,wxd,2015-05-22 11:10:00,
2015-05-22 07:15:00,56.6,48.0,30.06,WNW,294,0.0,2.0,73,0.00,,,0.00,14,wxd,2015-05-22 11:15:00,
2015-05-22 07:20:00,56.6,47.7,30.07,West,276,0.0,2.0,72,0.00,,,0.00,18,wxd,2015-05-22 11:20:00,